FENGYUN 1C DEB

Satellite information

Favourite Embed

Satellite Type and Status

DEBRISIN ORBIT

Key statistics

Satellite FENGYUN 1C DEB at a glance.

Uptime

9618

Days in orbit

Revolutions

≈ 14.3

Per day

Orbit

SSO

Sun Synchronous Orbit

Inclination

98.6

Latest

Satellite identification and parameters

Extended collection of information and parameters for FENGYUN 1C DEB.

Object identification

Identified? True

Debris? True

Object name: FENGYUN 1C DEB

International designator: 1999-025DJM

Object number (NORAD): 33748

Object ID (CCSDS): 33748

Country: PEOPLES REPUBLIC OF CHINA (PRC)

Current information (Y/N): Y

RCS size: SMALL

Orbital parameters

Period: 100.602 minutes

Inclination: 98.5976 deg

SMA: 7165.243 km

Apoapsis: 813.725 km

Periapsis: 760.491 km

RAAN: 298.5375 deg

Eccentricy: 0.0037147

Argument of periapsis: 176.2673 deg

Mean anomaly: 183.8794 deg

Mean motion: 14.31384769 rev/day

Mean motion (dot): 0.00005428 rev/day2

B* drag term: 0.0020471295 1/REarth

Two-line elements (TLE)

Creation date: Sept. 4, 2025, 4:29 a.m.

Reference frame: TEME

Reference center: EARTH

Epoch: Sept. 3, 2025, 8:46 a.m. UTC

TLE line 0: 0 FENGYUN 1C DEB

TLE line 1: 1 33748U 99025DJM 25246.36586552 .00005428 00000-0 20471-2 0 9994

TLE line 2: 2 33748 98.5976 298.5375 0037147 176.2673 183.8794 14.31384769899578

Live tracking on map

Real-time ground track for satellite FENGYUN 1C DEB.

In-orbit conjunctions

A list of the most updated potential collisions computed for object FENGYUN 1C DEB.

Target Orbit TCA Probability of collision Miss distance Type
SL-14 DEB LEO 2025-04-08 06:37:44 0.0005266583 43.0 (m) DEBRIS
COSMOS 1867 COOLANT LEO 2024-11-13 05:40:28 0.0003732166 323.0 (m) DEBRIS
COSMOS 1538 LEO 2024-10-02 20:53:09 0.0003363386 722.0 (m) PAYLOAD

Associated space launch

Chinese polar orbiting meteorological satellite

FENGYUN 1C DEB was lifted into orbit during the mission ‘Long March 4B | Feng Yun 1C’, on board a Long March 4B space rocket.

The launch took place on May 10, 1999, 1:33 a.m. from Launch Complex 7.

For more information about the launch, click the button.

Launch to space Long March 4B | Feng Yun 1C
Long March 4B | Feng Yun 1C

Agency: N/A

Status: Launch Successful

Launch date: May 10, 1999, 1:33 a.m. UTC

Rocket: Long March 4B

Launch pad: Launch Complex 7

Location: Taiyuan Satellite Launch Center, People's Republic of China

...

Latest news about this satellite

There are no fresh news available about this satellite. Check back as we update our databases every day.


Newsletter sign-up

Weekly statistics, charts and insights to help you stay on top of the space industry.